Inquirer Daily News

Weather

Get conditions and forecasts for any City, State, ZIP code or Country:  
Northeast Philadelphia, PA
on Monday, November 19, 2012

Monday
Previous Day Next Day
Daily Summary
 ActualAverage (KTTN)Record (KTTN)
Temperature
Mean Temperature °F 45°F  
Max Temperature 51°F 53°F 74°F (1921)
Min Temperature 36°F 36°F 17°F (1936)
Degree Days
Heating Degree Days 22 20  
Month to date heating degree days 333  
Since 1 July heating degree days 730  
Cooling Degree Days 0 0  
Month to date cooling degree days 0  
Year to date cooling degree days 965  
Moisture
Dew Point 36°F   
Average Humidity 72    
Maximum Humidity 86    
Minimum Humidity 62    
Precipitation
Precipitation 0.00 in 0.11 in 2.07 in (2003)
Month to date precipitation 2.00  
Year to date precipitation 41.43  
Wind
Wind Speed 9 mph   
Max Wind Speed 13 mph   
Max Gust Speed 17 mph   
Visibility 10 miles   
Events     

Key: T is trace of precipitation, MM is missing value
Source: NWS Daily Summary
Time(EST)TemperatureDew PointHumidity Pressure Visibility Wind DirectionWind SpeedGust SpeedPrecipitationEvents Conditions
12:54 AM 43.0°F 34.0°F 71% 30.53 in 10.0 miles NE 10.4 mph - N/A   Mostly Cloudy
1:54 AM 39.9°F 33.1°F 77% 30.52 in 10.0 miles NNE 9.2 mph - N/A   Clear
2:54 AM 39.9°F 33.1°F 77% 30.52 in 10.0 miles NNE 12.7 mph - N/A   Scattered Clouds
3:54 AM 39.9°F 34.0°F 79% 30.50 in 10.0 miles NNE 12.7 mph - N/A   Clear
4:54 AM 39.0°F 33.1°F 79% 30.49 in 10.0 miles NNE 11.5 mph - N/A   Clear
5:54 AM 37.0°F 33.1°F 86% 30.49 in 10.0 miles NE 9.2 mph - N/A   Clear
6:54 AM 36.0°F 32.0°F 86% 30.49 in 10.0 miles NNE 8.1 mph - N/A   Clear
7:54 AM 37.0°F 32.0°F 82% 30.48 in 10.0 miles NNE 9.2 mph - N/A   Clear
8:54 AM 39.9°F 33.1°F 77% 30.47 in 10.0 miles NNE 9.2 mph - N/A   Clear
9:54 AM 43.0°F 35.1°F 74% 30.47 in 10.0 miles NE 6.9 mph - N/A   Partly Cloudy
10:50 AM 44.6°F 35.6°F 71% 30.45 in 10.0 miles ENE 10.4 mph - N/A   Mostly Cloudy
10:54 AM 45.0°F 36.0°F 71% 30.45 in 10.0 miles NE 9.2 mph - N/A   Mostly Cloudy
11:54 AM 48.0°F 37.9°F 68% 30.41 in 10.0 miles NE 9.2 mph 17.3 mph N/A   Scattered Clouds
12:54 PM 50.0°F 39.0°F 66% 30.38 in 10.0 miles NE 9.2 mph - N/A   Clear
1:54 PM 51.1°F 39.0°F 63% 30.36 in 10.0 miles NE 8.1 mph - N/A   Partly Cloudy
2:14 PM 51.8°F 39.2°F 62% 30.34 in 10.0 miles ENE 8.1 mph - N/A   Mostly Cloudy
2:54 PM 51.1°F 39.0°F 63% 30.34 in 10.0 miles NE 9.2 mph - N/A   Overcast
3:54 PM 50.0°F 39.0°F 66% 30.34 in 10.0 miles NE 8.1 mph - N/A   Overcast
4:19 PM 50.0°F 37.4°F 62% 30.34 in 10.0 miles NNE 9.2 mph - N/A   Overcast
4:54 PM 48.9°F 37.9°F 66% 30.34 in 10.0 miles NE 6.9 mph - N/A   Overcast
5:54 PM 48.0°F 37.9°F 68% 30.33 in 10.0 miles NE 10.4 mph - N/A   Overcast
6:54 PM 46.9°F 37.9°F 71% 30.33 in 10.0 miles NNE 6.9 mph - N/A   Overcast
7:54 PM 46.9°F 37.0°F 68% 30.31 in 10.0 miles NE 9.2 mph - N/A   Overcast
8:54 PM 46.9°F 37.9°F 71% 30.30 in 10.0 miles NE 5.8 mph - N/A   Overcast
9:54 PM 46.9°F 37.9°F 71% 30.29 in 10.0 miles NNE 8.1 mph - N/A   Overcast
10:54 PM 46.0°F 37.9°F 73% 30.27 in 10.0 miles NE 5.8 mph - N/A   Overcast
11:03 PM 46.4°F 37.4°F 71% 30.26 in 10.0 miles NE 4.6 mph - N/A   Overcast
11:14 PM 46.4°F 37.4°F 71% 30.26 in 10.0 miles NE 5.8 mph - N/A   Overcast
11:54 PM 46.0°F 37.9°F 73% 30.26 in 10.0 miles NE 4.6 mph - N/A   Overcast
Astronomy
Sunrise:06:50 AM (EST) Moon Rise:11:51 AM (EST)
Sunset:04:40 PM (EST) Moon Set:11:04 PM (EST)
Moon Phase
Nov. 19 Nov. 20 Nov. 28 Dec. 06 Dec. 13

Copyright © 2014 The Weather Underground, Inc.